Location: Utrecht
(52.0830°N, 5.1330°E)
Time: 18:43:59
(UTC+02:00)

Daily predictions for brighter satellites

Satellite Brightness Start Highest point End
(mag) Time Altitude Azimuth Time Altitude Azimuth Time Altitude Azimuth
Cosmos 1703 Rocket 4.3 22:15:51 10° NNW 22:20:13 56° W 22:24:31 10° S
USA 215 3.6 22:14:11 10° SE 22:20:39 59° SW 22:27:08 10° WNW
CZ-4C R/B 4.2 22:19:42 10° NW 22:25:14 31° N 22:31:29 10° ENE
Meteor 1-29 3.1 22:25:43 10° NNE 22:29:16 84° WNW 22:32:45 10° SSW
ERS-1 Rocket 3.3 22:25:46 10° S 22:30:47 68° WSW 22:35:51 10° NNW
Cosmos 2227 Rocket 3.9 22:26:24 10° NNW 22:30:52 23° NE 22:35:19 10° E
NOSS 3-2 (C) 3.6 22:25:19 10° SW 22:31:29 87° SE 22:38:25 10° NE
Cosmos 1048 Rocket 4.3 22:27:20 10° NNW 22:32:41 74° WSW 22:37:56 10° SSE
Cosmos 1782 3.3 22:32:39 10° NNW 22:36:38 61° W 22:40:34 10° S
Cosmos 2219 3.9 22:31:27 10° NNW 22:37:00 46° NE 22:42:32 10° ESE
Cosmos 1733 Rocket 3.8 22:34:14 10° SSE 22:38:07 34° E 22:42:02 10° NNE
SL-08 RB Rocket 3.8 22:35:19 10° SSE 22:39:59 84° ENE 22:44:42 10° NNW
Cosmos 1408 2.6 22:37:20 10° S 22:41:03 77° E 22:44:49 10° NNE
Cosmos 1869 Rocket 3.9 22:40:28 10° SSW 22:44:47 70° WNW 22:49:11 10° N
Helios 1B rocket 3.3 22:40:47 10° N 22:44:49 53° WNW 22:48:48 10° SW
Landsat 7 4.1 22:41:59 10° SSE 22:46:39 56° ENE 22:51:19 10° N
CENTAUR R/B 2.8 22:40:50 10° SSW 22:46:46 51° ESE 22:53:33 10° NE
Gbstr 26 Del rocket 3.0 22:44:12 10° W 22:49:06 86° S 22:53:10 10° E
Cosmos 1825 2.2 22:46:12 10° S 22:50:00 89° E 22:53:49 10° N
Cosmos 1943 Rocket 2.2 22:46:15 10° SSW 22:51:43 58° ESE 22:57:10 10° NE
Cosmos 2251 Rocket 3.8 22:49:09 10° NNW 22:54:21 57° ENE 22:59:01 13° SE
Lacrosse 4 Rocket 2.2 22:51:51 10° NW 22:56:14 50° WSW 23:00:27 11° SSE
Cosmos 1092 Rocket 4.5 22:53:37 10° SSE 22:59:21 43° E 23:05:05 10° NNE
SOZ 4.3 22:56:07 10° W 22:59:22 88° N 23:01:28 10° E
Cosmos 2263 4.2 22:54:07 10° SSW 22:59:53 79° ESE 23:05:38 10° NNE
Nadezhda 4 Rocket 4.1 22:54:19 10° S 23:00:23 59° E 23:06:26 10° NNE
Molniya-1 1.9 22:59:58 10° SW 23:01:30 56° SE 23:03:07 10° NE
Cosmos 1862 3.3 22:57:45 10° S 23:01:43 71° E 23:05:41 10° NNE
Terra 2.1 22:57:35 13° SE 23:01:47 56° ENE 23:06:28 10° N
SPOT 1/Viking Rocket 3.7 22:59:11 10° SSE 23:04:22 78° WSW 23:09:39 10° NNW
COSMOS 2455 3.0 22:58:41 10° SW 23:04:43 80° NW 23:10:48 10° NE
Cosmos 1674 Rocket 3.5 23:04:57 10° N 23:09:20 84° E 23:13:08 13° SSE
Cosmos 372 Rocket 3.9 23:04:17 10° SSW 23:09:24 82° ESE 23:14:33 10° NNE
Cosmos 1812 3.8 23:06:36 10° N 23:10:09 32° ENE 23:12:45 16° SE
Cosmos 1378 Rocket 3.9 23:06:01 10° N 23:10:22 52° ENE 23:13:46 16° SSE
ATLAS CENTAUR R/B 3.2 23:11:20 13° ESE 23:11:21 13° ESE 23:13:06 10° E
CARTOSAT-1 3.7 23:07:47 14° SSE 23:11:23 66° ENE 23:15:42 10° N
Cosmos 2369 Rocket 2.6 23:06:55 10° SW 23:12:35 68° NW 23:18:18 10° NNE
Cosmos 1346 3.0 23:10:01 10° N 23:12:41 54° ENE 23:14:15 21° SSE
GEOS 3 Rocket 3.7 23:10:20 14° SE 23:14:46 71° SW 23:20:03 10° NW
Cosmos 2344 3.8 23:08:34 10° SSW 23:15:59 56° ESE 23:24:36 10° NE
SPOT 5 3.9 23:11:18 10° S 23:16:30 50° W 23:21:38 10° NNW
ISS -3.6 23:14:43 10° SW 23:17:51 45° SSE 23:21:00 10° E
Alouette 2 Rocket 4.3 23:11:50 10° S 23:18:56 70° ESE 23:23:35 10° NNE
Cosmos 1125 Rocket 3.7 23:13:46 10° SSW 23:19:00 75° WNW 23:24:15 10° NNE
Cosmos 1340 4.3 23:16:35 10° NNW 23:19:56 30° W 23:23:17 10° SSW
ATLAS 3B R/B 4.4 23:14:32 10° W 23:21:12 38° NNW 23:27:35 10° NE
Cosmos 2297 Rocket 3.3 23:20:48 10° NNW 23:26:03 36° NE 23:31:06 11° ESE
H-2A R/B 2.1 23:25:29 19° SSE 23:28:20 63° ENE 23:32:27 10° N
Cosmos 1437 2.8 23:26:27 10° NNW 23:29:41 72° WSW 23:31:45 20° S
CZ-4C R/B 4.5 23:26:58 17° SE 23:29:46 35° ENE 23:33:32 10° N
Okean 1 4.5 23:26:11 10° N 23:29:47 31° ENE 23:32:05 18° ESE
Cosmos 405 Rocket 3.2 23:27:22 10° N 23:30:58 44° ENE 23:33:05 21° SE
ATLAS 5 CENTAUR R/B 3.6 23:26:04 10° WNW 23:31:16 32° WSW 23:36:29 11° S
Okean 3 3.4 23:30:25 10° NNW 23:34:38 86° WSW 23:37:38 19° S
Spot 4 4.1 23:32:42 19° SE 23:36:08 61° ENE 23:40:54 10° N
Cosmos 1867 3.9 23:30:55 10° NW 23:36:16 56° SW 23:40:07 18° SSE
Lacrosse 5 rocket 1.0 23:37:30 10° WSW 23:41:07 89° SSE 23:44:54 10° ENE
IGS 5A 3.7 23:39:47 18° S 23:42:48 66° WSW 23:46:57 10° NNW
H-2A R/B 3.3 23:40:40 10° SSW 23:45:41 38° W 23:50:37 10° NNW
DNEPR-1 R/B 3.9 23:44:43 10° SW 23:49:33 71° NW 23:53:52 10° NE
Cosmos 1908 Rocket 3.5 23:47:07 18° S 23:50:27 78° E 23:54:55 10° NNE
Cosmos 1656 Rocket 3.6 23:45:20 10° SSW 23:50:46 75° ESE 23:56:21 10° NNE
Cosmos 2082 4.3 23:45:13 10° NNW 23:50:49 51° NE 23:55:10 17° ESE
CZ-2C R/B 3.9 23:51:24 18° ESE 23:54:42 38° ENE 23:59:11 10° N
BREEZE M DEB (TANK) 3.3 23:49:33 10° WSW 23:56:19 45° S 23:58:36 15° E
